Location: *
(51.4660°N, 0.3360°W)
Time: 06:30:18
(UTC+00:00)

Cosmos 2263 Rocket - Pass Details

Date: 19 September 2019
Orbit: 824 x 848 km, 71.0° (Epoch: 17 October)

Event Time Altitude Azimuth Distance (km) Brightness Sun altitude
Exits shadow 22:50:16 30° 23° (NNE) 1,478 3.7 -35.5°
Drops below altitude 10° 22:53:03 10° 28° (NNE) 2,479 5.0 -35.6°
Sets 22:55:31 0° 30° (NNE) 3,415 5.8 -35.7°
